GW2785 Weather Reports


Display with metric or nautical units.
time (UTC)temp
F
wind
direction
speed
MPH
gust
MPH
rain 1hr
in
rain 24hr
in
rain mn
in
humidity
%
barometer
mb
20260504232943 76 153 4.0 4.0 0.00 0.00 0.00 50 1002.1
20260504232440 76 144 2.0 2.0 0.00 0.00 0.00 52 1002.0
20260504231937 75 154 2.0 3.0 0.00 0.00 0.00 50 1002.1
20260504231433 74 153 2.0 3.0 0.00 0.00 0.00 57 1002.0
20260504230930 76 155 1.0 1.0 0.00 0.00 0.00 59 1002.0
20260504230426 78 160 0.0 0.0 0.00 0.00 0.00 54 1002.3
20260504225926 75 161 0.0 0.0 0.00 0.00 0.00 58 1002.5
20260504225422 73 162 0.0 0.0 0.00 0.00 0.00 59 1002.4
20260504224920 73 160 0.0 0.0 0.00 0.00 0.00 59 1002.3
20260504224416 73 161 0.0 0.0 0.00 0.00 0.00 58 1002.5
20260504223913 74 160 0.0 0.0 0.00 0.00 0.00 59 1002.6
20260504223408 75 137 0.0 0.0 0.00 0.00 0.00 54 1002.7
20260504222905 77 160 1.0 2.0 0.00 0.00 0.00 52 1002.6
20260504222402 77 164 2.0 3.0 0.00 0.00 0.00 52 1002.4
20260504221900 75 161 0.0 0.0 0.00 0.00 0.00 59 1002.8
20260504221356 75 163 0.0 0.0 0.00 0.00 0.00 56 1002.7
20260504220854 75 157 2.0 2.0 0.00 0.00 0.00 58 1002.8
20260504220350 74 157 0.0 0.0 0.00 0.00 0.00 59 1002.7
20260504215847 74 158 0.0 0.0 0.00 0.00 0.00 59 1002.6
20260504215344 74 161 0.0 0.0 0.00 0.00 0.00 62 1002.9
20260504214840 73 157 1.0 1.0 0.00 0.00 0.00 57 1003.0
20260504214337 73 155 1.0 1.0 0.00 0.00 0.00 60 1003.2
20260504213834 73 159 0.0 0.0 0.00 0.00 0.00 59 1003.3
20260504213329 73 157 2.0 3.0 0.00 0.00 0.00 57 1003.2
20260504212827 74 146 2.0 4.0 0.00 0.00 0.00 59 1003.3
20260504212323 75 130 3.0 4.0 0.00 0.00 0.00 57 1003.3
20260504211821 74 137 3.0 6.0 0.00 0.00 0.00 57 1003.4
20260504211317 74 97 5.0 6.0 0.00 0.00 0.00 61 1003.5
20260504210815 73 153 1.0 1.0 0.00 0.00 0.00 56 1003.4
20260504210311 73 150 5.0 6.0 0.00 0.00 0.00 57 1003.6
20260504205809 74 106 2.0 4.0 0.00 0.00 0.00 59 1003.8
20260504205306 73 141 4.0 4.0 0.00 0.00 0.00 56 1003.8
20260504204804 73 150 4.0 6.0 0.00 0.00 0.00 58 1003.5
20260504204302 72 128 2.0 6.0 0.00 0.00 0.00 60 1003.8
20260504203802 72 155 3.0 3.0 0.00 0.00 0.00 57 1004.1
20260504203258 72 157 2.0 2.0 0.00 0.00 0.00 60 1004.2
20260504202758 72 150 5.0 8.0 0.00 0.00 0.00 57 1004.3
20260504202256 75 132 1.0 1.0 0.00 0.00 0.00 58 1003.8
20260504201753 75 128 9.0 14.0 0.00 0.00 0.00 58 1004.0
20260504201250 73 161 2.0 2.0 0.00 0.00 0.00 59 1003.9
20260504200748 73 167 1.0 2.0 0.00 0.00 0.00 63 1003.8
20260504200243 72 134 1.0 2.0 0.00 0.00 0.00 64 1004.0
20260504195740 71 96 5.0 7.0 0.00 0.00 0.00 62 1004.1
20260504195236 71 166 1.0 1.0 0.00 0.00 0.00 68 1004.3
20260504194734 70 154 1.0 1.0 0.00 0.00 0.00 72 1004.4
20260504194229 69 150 0.0 1.0 0.00 0.00 0.00 75 1004.6
20260504193726 67 102 2.0 3.0 0.00 0.00 0.00 71 1004.6
20260504193223 66 158 0.0 0.0 0.00 0.00 0.00 79 1004.7
20260504192722 66 176 0.0 1.0 0.00 0.00 0.00 75 1004.6
20260504192220 65 152 1.0 1.0 0.00 0.00 0.00 75 1005.3
20260504191718 65 158 0.0 0.0 0.00 0.00 0.00 81 1005.4
20260504191215 66 159 0.0 0.0 0.00 0.00 0.00 76 1004.9
20260504190710 66 171 2.0 2.0 0.00 0.00 0.00 72 1005.5
20260504190206 67 147 2.0 3.0 0.00 0.00 0.00 69 1005.7
20260504185703 68 170 4.0 6.0 0.00 0.00 0.00 66 1006.0
20260504185159 68 124 2.0 2.0 0.00 0.00 0.00 66 1005.6
20260504184656 68 147 2.0 2.0 0.00 0.00 0.00 70 1005.6
20260504184151 68 137 4.0 4.0 0.00 0.00 0.00 66 1005.2
20260504183648 68 127 2.0 3.0 0.00 0.00 0.00 66 1005.2
20260504183145 69 129 5.0 7.0 0.00 0.00 0.00 64 1005.4
20260504182643 69 133 4.0 6.0 0.00 0.00 0.00 63 1004.8
20260504182140 69 154 1.0 1.0 0.00 0.00 0.00 65 1004.9
20260504181638 70 129 3.0 4.0 0.00 0.00 0.00 62 1004.7
20260504181135 71 88 4.0 7.0 0.00 0.00 0.00 63 1004.8
20260504180634 71 75 4.0 6.0 0.00 0.00 0.00 62 1004.6
20260504180132 72 159 2.0 2.0 0.00 0.00 0.00 62 1004.5
20260504175629 71 146 3.0 4.0 0.00 0.00 0.00 69 1004.4
20260504175126 71 160 0.0 0.0 0.00 0.00 0.00 66 1004.5
20260504174624 71 167 1.0 1.0 0.00 0.00 0.00 63 1004.2
20260504174120 70 157 2.0 2.0 0.00 0.00 0.00 65 1004.5
20260504173618 70 128 3.0 3.0 0.00 0.00 0.00 63 1004.8
20260504173115 70 159 1.0 1.0 0.00 0.00 0.00 66 1004.8
20260504172611 70 164 0.0 0.0 0.00 0.00 0.00 67 1004.6
20260504172108 70 163 1.0 1.0 0.00 0.00 0.00 66 1004.6
20260504171604 69 156 1.0 1.0 0.00 0.00 0.00 65 1004.6
20260504171102 69 164 1.0 1.0 0.00 0.00 0.00 68 1004.8
20260504170557 68 140 1.0 2.0 0.00 0.00 0.00 70 1004.8
20260504150941 63 133 1.0 2.0 0.00 0.00 0.00 70 1005.6
20260504150438 64 159 0.0 1.0 0.00 0.00 0.00 69 1005.5
20260504140904 64 162 1.0 1.0 0.00 0.00 0.00 66 1006.2
20260504140400 63 150 2.0 2.0 0.00 0.00 0.00 74 1006.1
20260504130325 57 159 1.0 1.0 0.00 0.00 0.00 76 1006.2
20260504120248 52 161 0.0 0.0 0.00 0.00 0.00 82 1006.3
20260504110716 48 160 0.0 0.0 0.00 0.00 0.00 84 1006.3
20260504110212 47 164 0.0 0.0 0.00 0.00 0.00 84 1006.2
20260504100136 44 160 0.0 0.0 0.00 0.00 0.00 88 1006.6
20260504081529 49 158 0.0 0.0 0.00 0.00 0.00 76 1007.2
20260504081025 49 166 1.0 1.0 0.00 0.00 0.00 77 1007.2
20260504080522 48 178 0.0 0.0 0.00 0.00 0.00 78 1007.2
20260504050334 50 167 0.0 0.0 0.00 0.00 0.00 73 1008.8
20260504045831 49 165 0.0 0.0 0.00 0.00 0.00 73 1008.8
20260504045326 48 162 0.0 0.0 0.00 0.00 0.00 76 1008.9
20260504044823 48 160 0.0 0.0 0.00 0.00 0.00 74 1009.1
20260504044321 49 160 0.0 0.0 0.00 0.00 0.00 75 1008.9
20260504043818 49 160 0.0 0.0 0.00 0.00 0.00 74 1009.0
20260504043315 49 166 0.0 0.0 0.00 0.00 0.00 73 1009.1
20260504042812 50 160 0.0 0.0 0.00 0.00 0.00 73 1009.3
20260504042308 51 158 0.0 0.0 0.00 0.00 0.00 69 1009.2
20260504041805 51 160 0.0 0.0 0.00 0.00 0.00 68 1009.1
20260504041301 52 160 0.0 0.0 0.00 0.00 0.00 68 1009.1
20260504040757 52 167 0.0 0.0 0.00 0.00 0.00 68 1009.2
20260504040255 52 164 0.0 0.0 0.00 0.00 0.00 68 1009.3
20260504035750 53 159 0.0 0.0 0.00 0.00 0.00 67 1009.4
20260504035248 53 160 0.0 0.0 0.00 0.00 0.00 66 1009.5
20260504034745 53 161 0.0 0.0 0.00 0.00 0.00 66 1009.4
20260504034242 53 160 0.0 0.0 0.00 0.00 0.00 65 1009.5
20260504033740 53 163 0.0 0.0 0.00 0.00 0.00 64 1009.6
20260504033237 53 160 0.0 0.0 0.00 0.00 0.00 66 1009.5
20260504032734 54 163 0.0 0.0 0.00 0.00 0.00 64 1009.5
20260504032231 54 162 0.0 0.0 0.00 0.00 0.00 64 1009.5
20260504031728 54 162 0.0 0.0 0.00 0.00 0.00 64 1009.5
20260504031226 54 163 0.0 0.0 0.00 0.00 0.00 63 1009.5
20260504030721 54 164 0.0 0.0 0.00 0.00 0.00 65 1009.6
20260504030219 54 169 0.0 0.0 0.00 0.00 0.00 63 1009.8
20260504025715 54 167 0.0 1.0 0.00 0.00 0.00 62 1009.8
20260504025212 54 162 0.0 0.0 0.00 0.00 0.00 63 1009.7
20260504024709 54 161 0.0 0.0 0.00 0.00 0.00 63 1009.9
20260504024205 54 163 0.0 0.0 0.00 0.00 0.00 62 1009.7
20260504023702 54 161 0.0 0.0 0.00 0.00 0.00 62 1009.8
20260504023158 54 161 0.0 0.0 0.00 0.00 0.00 61 1009.9
20260504022654 54 161 0.0 0.0 0.00 0.00 0.00 61 1009.9
20260504022150 55 161 0.0 0.0 0.00 0.00 0.00 61 1009.8
20260504021649 55 161 0.0 0.0 0.00 0.00 0.00 59 1009.8
20260504021145 55 160 0.0 0.0 0.00 0.00 0.00 59 1009.8
20260504020642 56 162 0.0 0.0 0.00 0.00 0.00 58 1010.0
20260504020138 55 172 0.0 0.0 0.00 0.00 0.00 57 1009.9
20260504015635 55 159 0.0 0.0 0.00 0.00 0.00 58 1009.8
20260504015131 55 161 0.0 0.0 0.00 0.00 0.00 58 1009.8
20260504014627 55 161 0.0 0.0 0.00 0.00 0.00 57 1009.7
20260504014124 55 165 0.0 0.0 0.00 0.00 0.00 57 1009.6
20260504013622 56 166 0.0 0.0 0.00 0.00 0.00 58 1009.6
20260504013119 56 167 0.0 0.0 0.00 0.00 0.00 55 1009.4
20260504012616 56 170 0.0 0.0 0.00 0.00 0.00 55 1009.4
20260504012114 56 161 0.0 0.0 0.00 0.00 0.00 57 1009.3
20260504011610 56 158 0.0 0.0 0.00 0.00 0.00 56 1009.6
20260504011107 56 161 0.0 0.0 0.00 0.00 0.00 55 1009.5
20260504010602 56 161 0.0 0.0 0.00 0.00 0.00 55 1009.4
20260504010059 56 168 0.0 0.0 0.00 0.00 0.00 55 1009.4
20260504005555 56 162 0.0 0.0 0.00 0.00 0.00 55 1009.6
20260504005053 56 161 0.0 0.0 0.00 0.00 0.00 55 1009.5
20260504004550 56 162 0.0 0.0 0.00 0.00 0.00 55 1009.5
20260504004047 57 160 0.0 0.0 0.00 0.00 0.00 55 1009.3
20260504003543 57 164 0.0 0.0 0.00 0.00 0.00 54 1009.5
20260504003040 57 162 0.0 0.0 0.00 0.00 0.00 52 1009.3
20260504002537 57 161 0.0 0.0 0.00 0.00 0.00 54 1009.5
20260504002035 57 158 0.0 0.0 0.00 0.00 0.00 52 1009.6
20260504001532 57 158 2.0 2.0 0.00 0.00 0.00 49 1009.4
20260504001028 57 162 0.0 0.0 0.00 0.00 0.00 51 1009.1
20260504000526 57 163 0.0 0.0 0.00 0.00 0.00 51 1009.2
20260504000023 57 163 0.0 0.0 0.00 0.00 0.00 52 1009.3
20260503235521 57 163 0.0 0.0 0.00 0.00 0.00 52 1008.8
20260503235018 58 158 0.0 0.0 0.00 0.00 0.00 52 1009.0
20260503234515 59 159 1.0 1.0 0.00 0.00 0.00 51 1009.0
20260503234014 59 160 0.0 0.0 0.00 0.00 0.00 52 1008.9
20260503233510 59 179 0.0 0.0 0.00 0.00 0.00 49 1009.1
20260503233006 59 155 1.0 1.0 0.00 0.00 0.00 49 1009.1